CZ-4B DEB, 40533

Orbit data source: Space-Track

CZ-4B DEB, 40533 is space debris in LEO originally from a launch on Fri, 25 Oct 2013 UTC launched from the Jiuquan Satellite Launch Center, China (JSC). Debris objects in space refer to the collection of defunct objects orbiting the Earth. Examples of debris include non-operational satellites, rocket bodies, and fragments generated from explosions, collisions, or faulty payload assembly.

Loading next visibility...
Identifier
40533, 2013-057F
Orbit
LEO
Country
Flag of CNCN / PRC
Related business
Manufacturer
SAST
Mission
Spacecraft
Bus & Motor
Unknown
Mass
Unknown
Launch date (UTC)
2013-10-25 (12 years ago)
Launch vehicle
Unknown
Launch site
Jiuquan Satellite Launch Center, China (JSC)
Object type
Payload
Rocket body
Debris
Shape & HBR
Unknown shape, 0.1 m
Radar Cross Section
Small (<0.1 m²)

Expand to show TLE details & history
Last TLE update: 2 days ago

TLE from 2 days ago
0 CZ-4B DEB
1 40533U 13057F   25305.70329795  .00007646  00000-0  12776-2 0  9996
2 40533  74.9191 207.3645 0164941  19.1541 341.5731 14.61334357560193
Epoch: 2025-11-01T16:52Z
TLE epoch observation values (Epoch: 2025-11-01T16:52:44.942Z)
Latitude
-0.00008°
Longitude
-87.05235°
Altitude
581.15 km
Speed
7.629 km/s
True Right ascension
13h 49m 27s
True Declination
0° 00' 00"
Sunlit
Object was in daylight at epoch
Visualization orbit readout
Latitude
Unknown
Longitude
Unknown
Altitude
Unknown
Speed
Unknown
Apparent Right ascension
Unknown
Apparent Declination
Unknown
Sunlit
N/A
Visualization observer readout
Local Sidereal Time
10:19:59
Azimuth
Unknown
Elevation
Unknown
Doppler factor
Unknown
Orbital elements
Apogee altitude
802.913 km
Perigee altitude
569.867 km
Semi-major axis
7,064.527 km
Eccentricity
0.01649
Inclination
74.9191°
RAAN
207.3645°
Arg. of periapsis
19.1541°
True anomaly
340.96376°
Mean anomaly
341.5731°
Eccentric anomaly
341.26963°
Mean motion
3.65526 °/min
Orbital period
98.49 mins
BSTAR
0.0012776
Loading maneuver chart data...
Computing Atmospheric mass density...
Loading historical data...
Loading historical data...
Loading historical data...
Loading historical data...
Loading historical data...
Loading historical data...
Loading historical data...
Other satellites on launch #57 in the year 2013 (2013-10-25 UTC)

Documentation

Showing up to 5 results
|